Monticello, KY

1:01 AM EST on December 06, 2019 (GMT -0500)
Wayne County

Weather History for KEKQ - September, 2019

Change the Weather History Date:

Friday, September 6, 2019

  Actual Average Record
Temperature  
Mean Temperature 68 °F -  
Max Temperature 86 °F 82 °F 94 °F (1960)
Min Temperature 50 °F 59 °F -74 °F (2013)
Cooling Degree Days 3    
Growing Degree Days 18 (Base 50)    
Moisture  
Dew Point 56 °F    
Average Humidity 88    
Maximum Humidity 100    
Minimum Humidity 45    
Precipitation  
Precipitation 0.00 in - - ()
Sea Level Pressure  
Sea Level Pressure 30.00 in    
Wind  
Wind Speed 6 mph (NW)    
Max Wind Speed 15 mph    
Max Gust Speed 20 mph    
Visibility 6 miles    
Events Fog    
Averages and records for this station are not official NWS values.
T = Trace of Precipitation, MM = Missing Value Source: NWS Daily Summary

Daily Weather History Graph

Daily Weather History Graph

Search for Another Location

Airport or City:

Astronomy

Sep. 06, 2019 Rise Set
Actual Time 6:14 AM CDT 7:00 PM CDT
Civil Twilight 5:47 AM CDT 7:27 PM CDT
Nautical Twilight 5:16 AM CDT 7:58 PM CDT
Astronomical Twilight 4:44 AM CDT 8:29 PM CDT
Moon 2:10 PM CDT No Moon Set
Length of Visible Light 13h 39m
Length of Day
12h 46m
First Quarter, 56% of the Moon is Illuminated
Sep 6
First Quarter
Sep 13
Full
Sep 21
Last Quarter
Sep 28
New
Oct 5
First Quarter

Hourly Weather History & Observations

Time (CDT) Temp. Heat Index Dew Point Humidity Pressure Visibility Wind Dir Wind Speed Gust Speed Precip Events Conditions
12:56 AM 55.9 °F - 55.9 °F 100% 30.00 in 10.0 mi NNW 8.1 mph - N/A   Clear
1:56 AM 54.0 °F - 53.1 °F 97% 30.00 in 10.0 mi Variable 6.9 mph - N/A   Clear
2:56 AM 54.0 °F - 54.0 °F 100% 29.99 in 10.0 mi Calm Calm - N/A   Clear
3:46 AM 51.8 °F - 51.8 °F 100% 30.02 in 3.0 mi Calm Calm - N/A   Scattered Clouds
3:51 AM 51.8 °F - 51.8 °F 100% 30.02 in 0.8 mi Variable 4.6 mph - N/A   Mostly Cloudy
3:56 AM 51.1 °F - 51.1 °F 100% 29.99 in 0.5 mi North - - N/A Fog Fog
4:03 AM 51.8 °F - 51.8 °F 100% 30.02 in 1.2 mi NNE 9.2 mph - N/A   Mostly Cloudy
4:10 AM 51.8 °F - 51.8 °F 100% 30.02 in 10.0 mi NNE 8.1 mph - N/A   Overcast
4:21 AM 51.8 °F - 51.8 °F 100% 30.02 in 0.5 mi Calm Calm - N/A Fog Fog
4:35 AM 51.8 °F - 51.8 °F 100% 30.02 in 1.0 mi Variable 3.5 mph - N/A   Mostly Cloudy
4:40 AM 51.8 °F - 51.8 °F 100% 30.02 in 0.5 mi NNE 9.2 mph - N/A Fog Fog
4:56 AM 51.1 °F - 51.1 °F 100% 30.00 in 0.5 mi West 10.4 mph - N/A Fog Fog
5:20 AM 51.8 °F - 51.8 °F 100% 30.03 in 1.0 mi Calm Calm - N/A   Mostly Cloudy
5:26 AM 51.8 °F - 51.8 °F 100% 30.03 in 9.0 mi NNE 9.2 mph - N/A   Scattered Clouds
5:49 AM 50.0 °F - 50.0 °F 100% 30.04 in 0.5 mi North 9.2 mph - N/A Fog Fog
5:56 AM 51.1 °F - 51.1 °F 100% 30.01 in 0.5 mi NNW 9.2 mph - N/A Fog Fog
6:00 AM 51.8 °F - 51.8 °F 100% 30.04 in 1.0 mi NNE 9.2 mph - N/A   Mostly Cloudy
6:02 AM 51.8 °F - 51.8 °F 100% 30.04 in 2.0 mi NNE 8.1 mph - N/A   Mostly Cloudy
6:09 AM 50.0 °F - 50.0 °F 100% 30.04 in 1.2 mi Calm Calm - N/A   Scattered Clouds
6:12 AM 50.0 °F - 50.0 °F 100% 30.04 in 0.8 mi West 8.1 mph - N/A   Mist
6:20 AM 50.0 °F - 50.0 °F 100% 30.04 in 1.5 mi Variable 3.5 mph - N/A   Partly Cloudy
6:27 AM 50.0 °F - 50.0 °F 100% 30.05 in 1.0 mi Calm Calm - N/A   Mist
6:29 AM 50.0 °F - 50.0 °F 100% 30.05 in 0.5 mi Calm Calm - N/A Fog Fog
6:38 AM 50.0 °F - 50.0 °F 100% 30.05 in 0.2 mi Calm Calm - N/A Fog Fog
6:46 AM 51.8 °F - 51.8 °F 100% 30.05 in 0.8 mi Calm Calm - N/A   Mist
6:48 AM 51.8 °F - 51.8 °F 100% 30.05 in 2.5 mi Calm Calm - N/A   Scattered Clouds
6:51 AM 51.8 °F - 51.8 °F 100% 30.05 in 8.0 mi North 3.5 mph - N/A   Mostly Cloudy
6:56 AM 52.0 °F - 52.0 °F 100% 30.03 in 6.0 mi NNE 8.1 mph - N/A   Mostly Cloudy
7:01 AM 51.8 °F - 51.8 °F 100% 30.05 in 2.5 mi Calm Calm - N/A   Scattered Clouds
7:17 AM 55.4 °F - 55.4 °F 100% 30.05 in 3.0 mi West 4.6 mph - N/A   Partly Cloudy
7:56 AM 61.0 °F - 59.0 °F 93% 30.02 in 10.0 mi NNW 8.1 mph - N/A   Clear
8:56 AM 68.0 °F - 61.0 °F 78% 30.02 in 10.0 mi WNW 9.2 mph - N/A   Clear
9:56 AM 73.0 °F - 59.0 °F 61% 30.02 in 10.0 mi Variable 6.9 mph - N/A   Clear
10:56 AM 77.0 °F - 61.0 °F 58% 30.01 in 10.0 mi West 5.8 mph - N/A   Clear
11:56 AM 79.0 °F - 60.1 °F 52% 29.99 in 10.0 mi North - - N/A   Clear
12:56 PM 82.0 °F 82.1 °F 59.0 °F 45% 29.97 in 10.0 mi West 15.0 mph 19.6 mph N/A   Clear
1:56 PM 82.9 °F 83.2 °F 60.1 °F 46% 29.94 in 10.0 mi North - - N/A   Clear
2:56 PM 84.9 °F 85.9 °F 63.0 °F 48% 29.94 in 10.0 mi West 12.7 mph 19.6 mph N/A   Clear
3:56 PM 84.9 °F 87.1 °F 66.0 °F 53% 29.92 in 10.0 mi WNW 9.2 mph - N/A   Clear
4:56 PM 86.0 °F 87.6 °F 64.9 °F 49% 29.92 in 10.0 mi WSW 13.8 mph 18.4 mph N/A   Clear
5:56 PM 84.0 °F 86.5 °F 66.9 °F 56% 29.91 in 10.0 mi WSW 15.0 mph - N/A   Clear
6:56 PM 80.1 °F 82.7 °F 68.0 °F 67% 29.92 in 10.0 mi West 12.7 mph - N/A   Mostly Cloudy
7:56 PM 75.9 °F - 68.0 °F 76% 29.92 in 10.0 mi West 11.5 mph - N/A   Scattered Clouds
8:56 PM 71.1 °F - 68.0 °F 90% 29.94 in 10.0 mi West 10.4 mph - N/A   Scattered Clouds
9:56 PM 71.1 °F - 70.0 °F 96% 29.93 in 10.0 mi West 10.4 mph - N/A   Overcast
10:56 PM 73.0 °F - 69.1 °F 87% 29.92 in 10.0 mi WNW 4.6 mph - N/A   Mostly Cloudy
11:56 PM 75.0 °F - 71.1 °F 87% 29.92 in 10.0 mi NNW 10.4 mph 17.3 mph N/A   Mostly Cloudy